This demonstration page uses our WeatherBlox Daily Observations layout. Learn more.

Left ArrowRight Arrow

41.12389, -100.76542

Hourly Observations for August 24, 2019

Temp ( °F °C ) Dew Point ( °F °C ) Humidity (%) Winds ( mph kmh ) Pressure ( in mb ) Visibility ( mi km ) Precip ( " mm )
12:11 am 00:11 Cloudy 70 21.1 66 18.9 87 87 SSE 9 15 29.95 1014 10 16 0.00 0.00
12:53 am 00:53 Cloudy 70 21.1 65 18.3 84 84 S 8 13 30.01 1016 10 16 0.00 0.00
1:33 am 01:33 Cloudy with Light Rain 69 20.6 66 18.9 90 90 SE 13 20 29.95 1014 10 16 0.00 0.00
1:53 am 01:53 Mostly Cloudy 69 20.6 66 18.9 90 90 SSE 9 15 29.99 1016 10 16 0.00 0.00
2:44 am 02:44 Mostly Cloudy 69 20.6 66 18.9 90 90 S 7 11 29.95 1014 10 16 0.00 0.00
2:53 am 02:53 Cloudy 69 20.6 66 18.9 90 90 SW 6 9 30.00 1016 10 16 0.00 0.00
3:03 am 03:03 Cloudy with Light Rain 69 20.6 66 18.9 90 90 W 12 19 29.97 1015 10 16 0.00 0.00
3:15 am 03:15 Cloudy with Heavy Rain 63 17.2 59 15 87 87 WNW 16 26 30.00 1016 5 8 0.06 1.52
3:22 am 03:22 Cloudy with Nearby Thunderstorms 63 17.2 59 15 87 87 WNW 17 28 30.00 1016 6 10 0.11 2.79
3:31 am 03:31 Cloudy with Strong Thunderstorms 62 16.7 58 14.4 86 86 NW 15 24 30.00 1016 3 4 0.33 8.38
3:43 am 03:43 Cloudy with Strong Thunderstorms 61 16.1 59 15 93 93 Calm 30.01 1016 2 2 0.71 18.03
3:52 am 03:52 Cloudy with Nearby Thunderstorms 61 16.1 59 15 93 93 Calm 30.01 1016 3 4 0.87 22.10
3:57 am 03:57 Cloudy with Strong Thunderstorms 61 16.1 59 15 93 93 E 3 6 30.00 1016 4 6 0.05 1.27
4:23 am 04:23 Cloudy with Nearby Thunderstorms 61 16.1 60 15.6 97 97 SSE 6 9 29.97 1015 10 16 0.10 2.54
4:51 am 04:51 Cloudy with Light Rain 63 17 61 16 94 94 SE 5 7 29.97 1015 10 16 0.13 3.30
4:53 am 04:53 Cloudy with Light Rain 62 16.7 60 15.6 93 93 SE 3 6 29.98 1015 10 16 0.13 3.30
5:53 am 05:53 Cloudy with Light Rain 63 17.2 61 16.1 93 93 SSE 8 13 29.94 1014 10 16 0.09 2.29
6:53 am 06:53 Mostly Cloudy 63 17.2 60 15.6 90 90 SSE 10 17 29.93 1014 10 16 0.01 0.25
7:53 am 07:53 Cloudy with Light Rain 64 17.8 61 16.1 90 90 S 9 15 29.95 1014 10 16 0.00 0.00
8:53 am 08:53 Partly Cloudy 64 17.8 61 16.1 90 90 SE 3 6 29.96 1014 10 16 0.01 0.25
9:53 am 09:53 Sunny 66 18.9 61 16.1 84 84 SSE 3 6 29.96 1015 10 16 0.00 0.00
10:53 am 10:53 Sunny 69 20.6 63 17.2 81 81 SSE 5 7 29.94 1014 10 16 0.00 0.00
11:53 am 11:53 Sunny 72 22.2 64 17.8 76 76 SSE 8 13 29.93 1014 10 16 0.00 0.00
12:53 pm 12:53 Sunny 73 22.8 63 17.2 71 71 SSE 9 15 29.92 1013 10 16 0.00 0.00
1:53 pm 13:53 Sunny 78 25.6 64 17.8 62 62 S 10 17 29.91 1013 10 16 0.00 0.00
2:53 pm 14:53 Mostly Sunny 78 25.6 65 18.3 64 64 SSE 9 15 29.90 1013 10 16 0.00 0.00
3:53 pm 15:53 Partly Cloudy 76 24.4 65 18.3 69 69 S 10 17 29.91 1013 10 16 0.00 0.00
4:48 pm 16:48 Mostly Cloudy 79 26 66 19 65 65 S 9 15 29.79 1009 10 16 0.00 0.00
4:53 pm 16:53 Mostly Cloudy 78 25.6 66 18.9 67 67 SSE 13 20 29.89 1012 10 16 0.00 0.00
5:03 pm 17:03 Partly Cloudy 77 25 66 18.9 69 69 S 13 20 29.80 1009 10 16 0.00 0.00
5:53 pm 17:53 Mostly Cloudy 75 23.9 65 18.3 71 71 SE 9 15 29.90 1012 10 16 0.00 0.00
6:12 pm 18:12 Cloudy with Nearby Thunderstorms 72 22.2 66 18.9 82 82 S 8 13 29.83 1010 4 6 0.06 1.52
6:24 pm 18:24 Cloudy with Thunderstorms 71 21.7 67 19.4 87 87 ESE 5 7 29.82 1010 5 8 0.16 4.06
6:53 pm 18:53 Cloudy with Thunderstorms 72 22.2 68 20 87 87 SSE 3 6 29.89 1012 10 16 0.16 4.06
7:14 pm 19:14 Cloudy 72 22.2 68 20 87 87 SSW 6 9 29.82 1010 10 16 0.00 0.00
7:33 pm 19:33 Mostly Cloudy with Nearby Thunderstorms 71 21.7 66 18.9 84 84 SSW 3 6 29.83 1010 10 16 0.00 0.00
7:42 pm 19:42 Cloudy 72 22.2 67 19.4 84 84 ESE 6 9 29.84 1010 10 16 0.00 0.00
7:53 pm 19:53 Cloudy 70 21.1 64 17.8 82 82 SSE 8 13 29.91 1013 10 16 0.00 0.00
8:10 pm 20:10 Mostly Cloudy with Nearby Thunderstorms 69 20.6 64 17.8 84 84 SSE 8 13 29.86 1011 10 16 0.00 0.00
8:17 pm 20:17 Mostly Cloudy with Thunderstorms 69 20.6 64 17.8 84 84 S 10 17 29.86 1011 10 16 0.00 0.00
8:53 pm 20:53 Partly Cloudy 67 19.4 63 17.2 87 87 SSE 7 11 29.91 1013 10 16 0.00 0.00
9:53 pm 21:53 Mostly Cloudy 66 18.9 63 17.2 90 90 SE 9 15 29.91 1013 10 16 0.00 0.00
10:53 pm 22:53 Mostly Clear 66 18.9 63 17.2 90 90 SSE 7 11 29.90 1013 10 16 0.00 0.00
11:21 pm 23:21 Mostly Cloudy 66 18.9 62 16.7 87 87 SE 9 15 29.86 1011 10 16 0.00 0.00
11:53 pm 23:53 Mostly Cloudy 65 18.3 62 16.7 90 90 SE 7 11 29.88 1012 10 16 0.00 0.00

Powered by AerisWeather